When you browse on this site, cookies collect data to enhance your experience and personalize the content and advertising you see.
Visit our Privacy Policy to learn more. By continuing to use the site, you agree to this use of cookies and data.
  • In Czech Republic
  • List of Countries
  • For 7 days
  • Water Temperature
  • Weather Map
  • Weather Widgets
  • user-avatar
    Login

    Hourly Weather Praha

    Today, 29 February, Saturday

    Time Temperature Precipitation Wind Pressure Humidity
    00:00 0°C° 0 mm 3 mps 741 mmHg 79%
    01:00 +1°C° 0 mm 3 mps 741 mmHg 73%
    02:00 0°C° 0.1 mm 3 mps 740 mmHg 76%
    03:00 -1°C° 0.1 mm 4 mps 739 mmHg 80%
    04:00 -1°C° 0.1 mm 4 mps 738 mmHg 83%
    05:00 -1°C° 0.9 mm 4 mps 737 mmHg 86%
    06:00 -1°C° 0.9 mm 4 mps 737 mmHg 90%
    07:00 -1°C° 0.9 mm 4 mps 736 mmHg 93%
    08:00 0°C° 0.6 mm 4 mps 736 mmHg 92%
    09:00 +2°C° 0.6 mm 3 mps 735 mmHg 91%
    10:00 +2°C° 0.6 mm 3 mps 735 mmHg 90%
    11:00 +4°C° 0 mm 3 mps 734 mmHg 85%
    12:00 +5°C° 0 mm 3 mps 733 mmHg 80%
    13:00 +7°C° 0 mm 4 mps 733 mmHg 75%
    14:00 +7°C° 0 mm 4 mps 732 mmHg 74%
    15:00 +7°C° 0 mm 4 mps 732 mmHg 74%
    16:00 +7°C° 0 mm 4 mps 731 mmHg 73%
    17:00 +6°C° 0.1 mm 4 mps 731 mmHg 75%
    18:00 +5°C° 0.1 mm 3 mps 731 mmHg 78%
    19:00 +5°C° 0.1 mm 3 mps 731 mmHg 80%
    20:00 +5°C° 0.2 mm 3 mps 731 mmHg 81%
    21:00 +5°C° 0.2 mm 3 mps 731 mmHg 81%
    22:00 +5°C° 0.2 mm 3 mps 731 mmHg 81%
    23:00 +6°C° 0 mm 4 mps 732 mmHg 81%

    Tomorrow, 1 March, Sunday

    Time Temperature Precipitation Wind Pressure Humidity
    00:00 +6°C° 0 mm 4 mps 732 mmHg 82%
    01:00 +6°C° 0 mm 5 mps 733 mmHg 82%
    02:00 +5°C° 0 mm 4 mps 733 mmHg 82%
    03:00 +5°C° 0 mm 4 mps 733 mmHg 83%
    04:00 +4°C° 0 mm 4 mps 733 mmHg 83%
    05:00 +4°C° 0 mm 4 mps 733 mmHg 82%
    06:00 +4°C° 0 mm 4 mps 733 mmHg 81%
    07:00 +3°C° 0 mm 5 mps 733 mmHg 81%
    08:00 +5°C° 0 mm 5 mps 733 mmHg 79%
    09:00 +5°C° 0 mm 5 mps 733 mmHg 77%
    10:00 +5°C° 0 mm 6 mps 734 mmHg 75%
    11:00 +7°C° 0 mm 6 mps 734 mmHg 71%
    12:00 +7°C° 0 mm 6 mps 734 mmHg 67%
    13:00 +8°C° 0 mm 5 mps 734 mmHg 63%
    14:00 +8°C° 0.1 mm 5 mps 733 mmHg 63%
    15:00 +8°C° 0.1 mm 5 mps 733 mmHg 64%
    16:00 +8°C° 0.1 mm 5 mps 732 mmHg 64%
    17:00 +7°C° 0 mm 4 mps 732 mmHg 69%
    18:00 +6°C° 0 mm 4 mps 732 mmHg 74%
    19:00 +4°C° 0 mm 3 mps 732 mmHg 80%
    20:00 +4°C° 0 mm 3 mps 731 mmHg 81%
    21:00 +4°C° 0 mm 3 mps 731 mmHg 81%
    22:00 +3°C° 0 mm 3 mps 730 mmHg 82%
    23:00 +3°C° 0 mm 3 mps 730 mmHg 84%

    Day after tomorrow, 2 March, Monday

    Time Temperature Precipitation Wind Pressure Humidity
    00:00 +4°C° 0 mm 2 mps 730 mmHg 86%
    01:00 +3°C° 0 mm 2 mps 729 mmHg 88%
    02:00 +3°C° 0 mm 3 mps 729 mmHg 87%
    03:00 +3°C° 0 mm 3 mps 729 mmHg 86%
    04:00 +3°C° 0 mm 3 mps 729 mmHg 85%
    05:00 +3°C° 0 mm 3 mps 729 mmHg 84%
    06:00 +3°C° 0 mm 3 mps 729 mmHg 83%
    07:00 +2°C° 0 mm 3 mps 729 mmHg 81%
    08:00 +3°C° 0 mm 3 mps 728 mmHg 75%
    09:00 +4°C° 0 mm 3 mps 728 mmHg 69%
    10:00 +5°C° 0 mm 3 mps 728 mmHg 62%
    11:00 +7°C° 0 mm 3 mps 728 mmHg 59%
    12:00 +8°C° 0 mm 3 mps 727 mmHg 56%
    13:00 +8°C° 0 mm 4 mps 727 mmHg 52%
    14:00 +9°C° 0 mm 3 mps 727 mmHg 53%
    15:00 +9°C° 0 mm 3 mps 726 mmHg 53%
    16:00 +9°C° 0 mm 3 mps 726 mmHg 53%
    17:00 +9°C° 0 mm 2 mps 726 mmHg 58%
    18:00 +8°C° 0 mm 2 mps 726 mmHg 62%
    19:00 +8°C° 0 mm 1 mps 726 mmHg 66%
    20:00 +7°C° 0 mm 1 mps 726 mmHg 68%
    21:00 +6°C° 0 mm 2 mps 726 mmHg 71%
    22:00 +6°C° 0 mm 2 mps 726 mmHg 73%
    23:00 +6°C° 0 mm 2 mps 726 mmHg 75%

    3 March, Tuesday

    Time Temperature Precipitation Wind Pressure Humidity
    00:00 +4°C° 0 mm 3 mps 727 mmHg 77%
    01:00 +4°C° 0 mm 3 mps 727 mmHg 79%
    02:00 +3°C° 0 mm 3 mps 727 mmHg 78%
    03:00 +3°C° 0 mm 4 mps 727 mmHg 77%
    04:00 +3°C° 0 mm 4 mps 727 mmHg 75%
    05:00 +1°C° 0 mm 4 mps 728 mmHg 76%
    06:00 +2°C° 0 mm 3 mps 729 mmHg 77%
    07:00 +2°C° 0 mm 3 mps 729 mmHg 77%
    08:00 +1°C° 0 mm 4 mps 730 mmHg 74%
    09:00 +3°C° 0 mm 4 mps 730 mmHg 72%
    10:00 +3°C° 0 mm 4 mps 731 mmHg 69%
    11:00 +4°C° 0 mm 4 mps 731 mmHg 65%
    12:00 +5°C° 0 mm 5 mps 731 mmHg 60%
    13:00 +5°C° 0 mm 5 mps 731 mmHg 56%
    14:00 +5°C° 0 mm 5 mps 731 mmHg 55%
    15:00 +6°C° 0 mm 4 mps 732 mmHg 53%
    16:00 +6°C° 0 mm 4 mps 732 mmHg 52%
    17:00 +5°C° 0 mm 4 mps 732 mmHg 57%
    18:00 +4°C° 0 mm 3 mps 733 mmHg 62%
    19:00 +4°C° 0 mm 2 mps 733 mmHg 67%
    20:00 +3°C° 0 mm 3 mps 733 mmHg 68%
    21:00 +3°C° 0 mm 3 mps 734 mmHg 70%
    22:00 +1°C° 0 mm 4 mps 734 mmHg 71%
    23:00 +2°C° 0 mm 3 mps 734 mmHg 74%

    4 March, Wednesday

    Time Temperature Precipitation Wind Pressure Humidity
    00:00 +1°C° 0 mm 3 mps 734 mmHg 76%
    01:00 +1°C° 0 mm 3 mps 734 mmHg 78%
    02:00 0°C° 0 mm 3 mps 734 mmHg 80%
    03:00 -1°C° 0 mm 4 mps 735 mmHg 83%
    04:00 -1°C° 0 mm 4 mps 735 mmHg 85%
    05:00 -1°C° 0 mm 4 mps 735 mmHg 84%
    06:00 0°C° 0 mm 3 mps 735 mmHg 83%
    07:00 0°C° 0 mm 3 mps 736 mmHg 82%
    08:00 0°C° 0 mm 4 mps 736 mmHg 79%
    09:00 +1°C° 0 mm 4 mps 736 mmHg 77%
    10:00 +2°C° 0 mm 5 mps 736 mmHg 75%
    11:00 +3°C° 0.1 mm 5 mps 736 mmHg 71%
    12:00 +5°C° 0.1 mm 5 mps 736 mmHg 68%
    13:00 +5°C° 0.1 mm 5 mps 736 mmHg 64%
    14:00 +5°C° 0.2 mm 5 mps 736 mmHg 64%
    15:00 +5°C° 0.2 mm 5 mps 736 mmHg 65%
    16:00 +5°C° 0.2 mm 5 mps 736 mmHg 65%
    17:00 +4°C° 0.1 mm 4 mps 737 mmHg 70%
    18:00 +3°C° 0.1 mm 3 mps 737 mmHg 76%
    19:00 +3°C° 0.1 mm 2 mps 737 mmHg 82%
    20:00 +3°C° 0 mm 2 mps 738 mmHg 82%
    21:00 +3°C° 0 mm 2 mps 738 mmHg 82%
    22:00 +1°C° 0 mm 3 mps 738 mmHg 82%
    23:00 +1°C° 0 mm 3 mps 738 mmHg 82%

    5 March, Thursday

    Time Temperature Precipitation Wind Pressure Humidity
    00:00 0°C° 0 mm 3 mps 737 mmHg 83%
    01:00 0°C° 0 mm 3 mps 737 mmHg 83%
    02:00 0°C° 0 mm 3 mps 737 mmHg 84%
    03:00 0°C° 0 mm 3 mps 737 mmHg 84%
    04:00 -1°C° 0 mm 3 mps 736 mmHg 84%
    05:00 -1°C° 0 mm 2 mps 736 mmHg 84%
    06:00 -1°C° 0 mm 2 mps 736 mmHg 84%
    07:00 -1°C° 0 mm 2 mps 735 mmHg 84%
    08:00 +2°C° 0 mm 2 mps 735 mmHg 77%
    09:00 +4°C° 0 mm 2 mps 734 mmHg 70%
    10:00 +4°C° 0 mm 3 mps 734 mmHg 63%
    11:00 +5°C° 0 mm 3 mps 733 mmHg 58%
    12:00 +7°C° 0 mm 3 mps 732 mmHg 53%
    13:00 +7°C° 0 mm 4 mps 732 mmHg 48%
    14:00 +7°C° 0 mm 4 mps 731 mmHg 50%
    15:00 +7°C° 0 mm 4 mps 730 mmHg 51%
    16:00 +7°C° 0 mm 5 mps 729 mmHg 53%
    17:00 +6°C° 0 mm 4 mps 728 mmHg 61%
    18:00 +5°C° 0 mm 4 mps 727 mmHg 69%
    19:00 +4°C° 0 mm 4 mps 727 mmHg 76%
    20:00 +3°C° 0 mm 3 mps 727 mmHg 78%
    21:00 +3°C° 0 mm 3 mps 726 mmHg 80%
    22:00 +3°C° 0 mm 2 mps 726 mmHg 82%
    23:00 +3°C° 0.1 mm 2 mps 726 mmHg 84%
    Show more